Theta_e
305 305 305 304 304 304 304 303 303 303 304 305 305 305 305 305 305 305 307 310 312 313 313 313 311 312 312 313 312 313 312 312 311 311 311 311 311 311 312 312 313 314 315 317 317 317 317 318 318 318 319 319 321 321 322 322 324 325 325 325 327 327 325 319 315 319 323 324 325 325 324 323 320 320 323 322 320 319 317 317 318 315 313 315 314 312 318
305 306 305 305 304 304 305 304 303 304 304 305 305 305 304 304 304 306 309 312 312 314 315 314 313 313 313 312 312 313 313 312 312 312 312 311 311 311 311 312 312 313 314 315 316 315 315 316 317 318 317 318 319 320 320 321 323 324 325 326 326 323 323 320 315 316 319 320 321 321 321 322 319 320 323 323 322 323 321 320 320 315 313 315 315 312 317
305 305 305 305 305 305 305 304 304 304 304 304 305 305 304 304 306 308 311 313 313 314 314 314 315 316 315 315 315 316 315 314 313 313 313 313 313 312 312 312 312 313 314 314 315 315 314 314 316 316 317 318 318 318 319 321 322 322 326 329 325 322 325 323 316 314 316 315 315 315 317 320 321 321 322 322 322 322 319 316 314 313 315 316 314 313 319
305 305 305 305 306 305 305 304 304 304 304 304 305 305 304 304 307 308 309 313 314 313 313 313 314 314 315 315 316 315 315 316 314 314 314 314 314 314 314 314 313 313 313 313 314 315 315 314 316 317 318 318 318 319 320 321 321 325 330 332 329 327 328 326 321 317 316 316 319 324 323 319 317 319 321 321 322 323 319 314 310 314 316 314 317 319 320
305 305 305 305 306 305 306 305 304 304 304 304 305 305 304 305 307 308 310 312 312 311 312 313 313 313 313 314 316 315 315 316 316 316 315 314 314 314 314 315 315 315 315 314 314 315 316 316 316 317 318 319 320 321 322 322 325 329 330 330 333 331 326 327 327 323 322 324 326 328 326 320 318 319 319 320 323 322 318 313 313 319 315 311 321 327 319
305 306 305 305 306 306 306 305 305 304 304 304 305 305 304 305 307 308 310 310 310 310 311 311 310 310 311 312 314 314 314 315 316 317 317 316 315 314 315 315 315 316 317 317 317 317 318 317 317 317 317 318 320 321 322 323 324 327 327 329 336 334 326 328 329 325 327 328 327 328 328 325 324 323 320 321 322 321 318 316 319 321 315 313 323 328 323
305 305 305 305 305 305 306 305 305 305 304 304 305 305 304 305 305 306 307 307 308 308 308 307 306 307 309 311 312 313 314 314 315 317 319 319 317 316 316 315 314 315 316 318 321 321 319 318 319 320 319 318 319 319 320 322 322 324 326 329 336 334 329 332 330 325 326 329 328 329 326 324 323 323 324 324 323 322 321 320 323 322 319 320 326 327 328
304 304 305 305 305 305 305 305 305 305 305 304 305 305 305 305 304 304 304 305 305 305 305 305 306 308 309 310 310 310 312 314 316 317 318 319 320 319 318 318 317 318 316 317 321 323 323 323 324 325 323 321 320 320 320 322 322 323 325 329 334 332 330 334 331 322 322 327 329 328 327 324 321 321 325 326 324 323 322 322 323 322 321 324 325 324 327
304 304 304 305 305 305 305 305 305 305 305 305 305 305 305 305 304 303 303 303 305 305 306 307 308 308 308 308 309 310 312 313 314 314 315 316 319 320 319 319 321 322 322 322 323 325 326 327 327 327 326 324 324 323 322 323 324 325 328 331 333 332 330 333 330 320 318 323 325 325 326 324 319 318 323 323 322 322 322 322 324 322 321 323 320 318 324
304 304 304 304 304 304 304 304 305 305 305 305 305 305 305 305 304 304 303 304 305 306 306 307 307 306 306 308 311 312 312 312 311 312 314 315 317 318 317 318 319 322 324 325 325 323 323 324 324 324 324 324 325 326 326 326 326 328 331 332 333 334 331 329 327 321 319 323 324 322 321 319 315 318 323 325 324 325 324 324 326 326 324 322 318 320 327
305 304 304 305 305 305 304 304 304 305 305 305 305 305 305 305 304 304 303 303 304 304 305 306 307 307 307 309 310 310 310 309 309 311 313 314 315 315 314 316 318 321 322 322 320 319 318 319 320 320 322 323 324 326 326 327 327 329 331 332 334 335 333 331 330 324 320 322 323 322 318 315 316 323 327 327 326 326 325 324 325 327 326 325 324 327 331
305 304 304 305 304 304 304 304 304 305 305 304 304 305 305 305 305 304 304 304 304 304 305 306 306 307 307 307 307 307 308 308 309 311 312 312 312 312 312 315 317 319 320 318 316 316 317 320 322 322 323 324 325 326 326 327 327 328 329 332 334 335 333 332 330 326 323 324 324 321 318 318 324 330 331 328 327 328 326 327 328 327 327 327 328 330 331
304 304 304 304 304 304 304 303 304 305 305 304 304 304 305 305 305 304 304 304 304 304 304 305 305 305 306 306 306 307 307 309 310 311 311 311 311 311 312 314 316 317 316 314 314 316 320 325 327 327 327 327 327 328 328 328 327 327 327 329 332 334 333 331 329 327 326 324 322 321 322 326 329 333 333 330 331 329 325 323 325 327 328 328 329 330 329
304 304 304 304 304 304 304 303 303 304 304 304 304 304 304 305 305 304 304 304 304 304 303 304 305 305 306 306 307 307 308 309 310 310 310 311 311 312 313 313 314 314 313 313 315 320 324 328 329 329 329 328 328 328 329 329 328 327 328 328 329 332 333 330 328 328 328 325 324 325 324 325 330 334 337 337 336 336 331 325 327 328 328 327 329 330 329
304 304 304 305 304 304 304 304 303 303 303 303 304 304 304 304 305 305 305 304 304 304 304 304 304 305 306 306 307 308 308 309 310 310 310 311 312 313 312 312 313 312 312 314 319 323 328 330 330 328 327 326 325 324 326 329 328 327 327 327 329 330 333 333 328 327 329 328 329 329 321 320 329 337 339 339 336 338 340 333 331 333 330 328 330 331 331
304 304 304 304 304 304 304 304 303 303 303 304 304 304 304 304 304 305 305 305 304 305 304 305 305 305 306 306 307 308 308 309 310 310 312 313 313 312 312 312 311 311 313 318 322 325 329 331 330 327 325 326 324 322 323 325 326 327 327 328 330 329 331 334 329 325 325 327 329 329 322 324 337 341 339 337 334 336 338 329 326 332 332 330 328 329 334
304 304 304 304 304 303 303 303 304 303 303 303 303 304 304 304 304 305 305 305 305 305 304 304 304 304 305 306 306 307 308 309 310 311 313 313 312 312 312 311 312 314 317 320 325 328 329 331 330 327 326 327 326 323 323 322 323 328 330 329 332 331 331 331 326 323 324 325 327 327 323 330 342 340 335 335 335 337 334 322 323 337 344 340 336 332 332
304 304 304 304 303 303 303 303 304 303 303 303 303 303 304 304 304 305 305 305 304 305 304 304 304 304 304 305 306 307 308 309 310 311 311 311 312 313 312 311 313 316 318 321 327 330 329 330 331 328 327 330 328 326 326 323 323 328 332 331 331 330 329 329 326 323 323 324 324 324 327 337 342 337 335 337 335 334 329 324 332 345 346 343 344 341 335
304 304 304 303 303 303 304 304 304 303 303 303 303 303 304 305 305 305 305 305 304 304 305 304 304 304 304 305 305 306 307 308 310 310 310 311 312 311 310 311 313 314 315 320 327 329 329 331 332 329 329 333 333 331 331 330 327 330 333 331 328 329 329 328 326 323 322 324 324 322 326 337 340 335 335 337 333 330 332 336 343 346 342 341 342 342 341
304 303 303 303 304 304 304 304 303 303 303 303 303 304 304 304 305 305 305 305 304 304 304 305 304 304 304 304 304 305 306 307 308 309 309 311 311 309 312 317 316 313 316 323 327 329 330 331 332 332 332 334 335 333 333 334 334 335 335 331 328 330 328 324 324 325 324 324 324 323 327 336 338 335 338 340 337 336 341 345 345 343 343 345 343 341 342
304 304 303 304 304 303 303 304 304 304 303 303 303 304 304 304 305 305 305 305 305 304 305 305 305 305 305 305 305 305 305 306 307 308 308 310 310 309 312 315 313 311 315 322 327 329 330 331 332 333 330 331 334 334 334 336 336 336 336 335 334 334 329 322 324 327 324 322 325 329 333 338 336 335 339 340 338 339 342 345 345 345 346 347 348 348 346
303 304 304 304 303 303 303 304 303 303 303 303 303 304 303 304 305 305 305 305 305 305 304 304 305 305 305 305 305 305 305 305 306 307 307 308 308 309 310 310 309 309 312 317 323 327 327 327 330 332 332 332 334 335 335 337 337 337 337 336 336 339 337 331 331 334 331 329 333 339 340 339 335 335 337 335 333 334 338 341 344 346 346 347 350 351 349
303 304 304 304 304 303 303 303 303 303 303 303 303 304 304 304 305 305 305 305 304 304 305 305 305 305 305 305 305 306 306 306 305 305 305 306 306 308 308 308 309 310 312 315 319 321 323 324 325 328 332 332 332 334 336 336 337 338 339 337 335 336 337 337 339 341 337 336 340 341 338 336 334 333 333 332 331 333 335 339 341 341 343 345 346 347 348
304 304 304 304 304 303 303 303 303 303 303 303 303 304 304 304 305 305 305 305 304 304 305 304 304 305 305 305 305 305 306 306 306 305 305 305 305 306 307 308 309 310 313 315 315 315 318 322 324 327 331 331 331 334 335 336 337 336 337 339 337 334 332 335 340 338 333 336 341 340 336 336 335 332 332 331 331 332 334 337 339 338 339 339 340 342 343
303 303 303 303 303 303 303 303 303 303 303 303 304 304 304 304 305 305 305 305 305 304 305 304 304 305 305 305 305 305 305 306 307 307 306 306 305 305 307 310 311 311 313 314 314 314 317 320 322 326 329 330 330 332 332 332 333 334 336 338 337 334 333 337 340 338 336 339 340 337 334 334 333 333 333 332 331 331 333 333 334 334 335 335 335 336 337
303 303 303 303 303 303 303 303 303 303 303 303 304 304 304 304 305 305 305 304 304 305 304 304 304 304 305 305 305 305 305 305 306 307 308 308 307 306 307 309 310 311 312 312 312 314 316 318 319 323 326 328 330 331 331 330 330 332 335 333 330 331 334 335 337 338 338 339 339 337 334 333 333 333 335 334 332 331 332 332 332 331 332 332 332 332 333
303 303 303 303 304 303 303 303 304 304 304 304 304 305 305 305 305 305 305 304 304 304 305 304 304 304 304 305 305 305 305 305 305 306 307 308 309 309 309 309 309 310 312 312 313 314 315 317 318 321 324 328 329 329 330 330 330 332 334 330 327 331 336 335 335 338 338 338 339 338 337 337 338 337 335 332 331 330 331 331 331 331 331 331 331 331 332
303 303 303 303 304 303 303 304 304 304 304 304 304 304 305 305 305 305 305 304 304 304 304 303 303 304 304 306 306 306 307 307 307 307 307 308 309 310 310 310 310 311 312 313 315 316 316 316 316 317 320 326 329 329 329 330 330 332 333 328 326 330 333 333 335 338 336 335 336 336 337 338 337 335 333 331 330 328 328 329 329 329 331 330 330 330 331
303 302 303 303 303 303 303 303 303 304 304 304 304 304 305 305 305 305 305 304 304 305 304 303 303 305 306 307 308 308 308 308 308 309 309 309 309 310 310 310 311 312 312 313 315 317 317 316 314 314 317 321 325 328 330 331 331 332 331 329 327 328 329 330 332 335 333 330 332 334 334 332 330 329 330 332 332 329 327 327 327 327 328 328 329 329 329
303 303 303 303 303 304 304 303 303 304 304 304 305 304 304 305 305 304 304 305 305 304 303 303 304 306 306 307 308 309 309 309 309 309 310 309 309 309 310 311 312 312 313 314 315 317 318 317 314 315 316 317 323 328 331 330 331 330 329 328 328 327 328 328 330 331 330 329 330 331 330 328 327 325 327 329 330 330 328 327 327 327 327 326 327 328 327
303 303 303 303 303 304 304 303 304 304 303 304 305 304 304 305 305 304 304 305 305 304 304 304 305 306 306 308 309 309 310 311 311 310 310 310 310 310 311 312 313 313 314 315 315 315 316 315 315 316 317 320 325 329 330 329 331 330 328 328 327 328 328 329 328 328 328 328 328 327 326 325 325 325 325 326 327 329 328 327 327 327 327 326 325 325 325
303 303 303 303 303 304 304 304 304 304 304 304 305 304 303 304 304 303 303 304 304 304 304 305 306 306 308 309 309 310 311 312 311 311 311 311 311 312 312 312 313 313 314 315 315 314 314 315 315 318 320 322 325 327 327 328 330 329 327 327 327 326 327 327 327 326 327 327 328 329 328 326 325 325 325 324 324 326 327 326 326 327 327 325 325 325 325
303 303 303 303 303 303 303 304 303 303 304 304 304 303 303 303 303 303 303 303 304 304 305 306 307 307 308 309 310 312 312 312 312 313 313 313 312 312 313 313 313 314 314 314 314 314 314 314 317 320 322 323 325 326 327 328 327 326 326 326 326 325 325 324 323 323 323 323 325 327 326 324 322 322 322 322 322 323 324 323 323 324 324 324 324 325 326
303 303 302 303 303 302 303 302 302 303 303 303 303 304 304 304 304 303 303 303 304 305 305 306 307 308 308 309 312 312 312 312 313 313 314 314 313 313 314 314 314 314 314 314 313 314 314 316 320 323 323 324 325 326 327 326 325 324 324 325 325 324 323 322 322 322 321 321 321 321 321 321 320 320 321 322 322 323 323 322 321 320 321 322 323 324 325
302 302 302 302 302 301 302 302 303 303 304 304 304 305 304 305 306 305 303 304 305 305 306 307 307 307 307 310 313 313 311 312 314 313 313 315 314 313 313 314 313 314 315 313 313 315 317 320 323 324 324 325 326 326 326 325 324 324 324 324 325 325 324 323 322 322 321 320 320 319 319 320 321 321 322 322 322 323 324 324 322 321 321 323 323 323 323
302 302 302 302 302 302 303 304 304 304 304 305 305 305 304 305 307 307 305 305 305 306 307 307 307 307 308 309 311 311 310 313 314 313 313 314 313 312 312 313 312 313 313 314 315 318 320 322 324 325 324 325 326 325 324 323 324 324 323 323 324 324 324 323 322 321 320 320 320 320 320 320 321 322 323 323 323 323 323 323 323 323 323 323 324 324 323
302 302 302 303 304 304 305 305 305 306 305 305 305 305 305 306 307 307 307 307 306 306 307 307 307 308 308 308 310 310 311 314 315 314 314 314 313 312 312 313 314 314 315 317 320 322 322 323 324 325 325 325 325 324 323 322 322 322 322 322 322 323 323 323 321 321 320 320 319 320 321 320 320 322 323 323 323 323 323 323 323 324 324 324 323 322 322
303 303 304 305 306 306 306 306 307 306 305 304 305 307 308 308 308 308 308 308 307 307 307 307 307 308 307 308 310 311 311 313 314 314 315 315 314 314 314 315 316 317 319 322 323 322 323 324 324 324 324 324 324 323 322 321 321 321 322 322 322 322 323 322 321 322 323 322 321 321 322 323 322 322 322 323 323 322 323 323 323 323 323 323 322 322 322
304 305 306 306 306 306 307 307 307 305 305 306 308 308 309 308 308 309 309 308 308 308 307 308 309 309 308 309 312 312 311 313 316 316 315 314 315 316 316 316 318 319 321 322 322 322 325 325 324 324 324 324 324 323 322 321 321 321 321 321 321 321 321 321 321 322 323 323 322 322 323 323 323 322 322 322 321 321 322 322 321 322 322 322 322 323 323
305 306 306 306 307 307 307 306 306 306 307 308 308 308 308 308 309 309 310 310 310 310 309 309 311 312 310 310 312 312 311 312 315 317 317 316 316 316 317 319 319 320 321 322 322 323 324 324 324 325 325 324 324 323 322 321 322 322 321 321 321 321 320 320 320 320 321 321 320 320 321 321 321 321 321 320 321 321 321 321 322 323 323 323 323 324 324
305 305 306 306 306 306 305 306 307 308 308 308 308 308 309 309 309 309 310 312 313 312 310 311 313 314 312 311 311 313 313 312 313 316 318 318 317 317 319 321 320 321 322 322 322 323 324 324 326 326 325 324 323 323 322 322 322 322 322 322 322 321 321 321 321 321 321 320 320 320 320 320 320 320 320 320 320 321 321 321 322 323 324 324 324 324 324
305 305 305 305 305 305 306 307 308 309 308 308 308 308 308 309 310 310 311 312 312 312 311 312 313 313 313 311 311 313 314 314 313 316 319 319 318 319 321 321 321 323 323 320 321 323 325 325 326 325 324 323 322 322 322 322 322 321 321 321 322 322 322 321 321 321 322 321 321 321 322 321 321 322 322 322 322 322 322 322 322 323 324 324 323 323 323
305 304 304 305 306 307 308 308 307 307 308 307 307 308 310 310 310 312 312 312 312 312 312 313 313 313 313 313 313 314 315 315 315 317 320 319 318 320 321 322 323 322 319 317 320 325 325 324 324 323 322 321 321 322 322 323 322 321 321 321 321 322 322 322 321 322 322 322 322 322 322 322 322 322 322 322 322 322 322 323 323 323 324 323 323 323 323
306 305 305 306 306 307 308 307 306 308 310 309 309 311 312 311 311 312 313 312 312 312 313 313 314 314 314 314 314 316 317 316 315 317 319 319 319 321 323 323 321 319 318 320 324 325 324 323 324 323 322 321 321 322 322 323 322 321 321 320 321 322 322 321 321 321 321 322 322 322 323 323 323 323 322 322 322 321 322 323 323 323 323 323 323 323 324
306 305 305 306 306 306 307 308 308 309 311 311 311 311 311 311 311 312 312 310 310 312 313 313 313 313 314 315 316 316 317 317 317 318 319 320 321 322 322 321 319 318 319 322 323 323 322 322 322 322 322 321 321 322 323 322 322 321 321 321 321 321 321 321 322 321 321 322 322 322 322 323 323 323 323 322 322 321 322 323 323 323 323 323 323 324 324
305 304 305 306 307 306 307 308 308 309 309 310 310 310 310 310 310 311 310 310 311 313 314 313 312 311 313 316 317 316 316 317 318 318 319 320 320 319 318 319 320 320 320 321 322 322 321 321 321 321 321 321 321 322 322 322 321 321 322 322 322 322 322 322 322 322 322 323 323 323 323 323 323 323 323 322 322 322 322 323 323 323 323 323 323 324 324
304 302 303 306 308 307 307 309 309 308 308 309 309 309 309 309 308 309 310 310 310 311 312 313 312 311 312 314 316 316 316 317 317 317 317 320 320 317 317 319 320 320 321 322 323 322 321 321 322 322 322 321 321 321 321 321 321 322 322 322 322 321 321 321 321 321 322 322 322 322 323 323 324 323 323 323 322 322 322 322 323 323 323 323 324 324 324
304 303 304 307 307 307 308 310 309 308 308 308 307 308 308 307 307 310 312 311 309 309 311 314 316 315 314 315 315 316 317 317 317 316 317 319 319 317 318 319 320 319 320 321 321 322 322 323 322 322 322 322 322 321 321 322 322 322 322 322 321 321 321 321 320 321 321 321 321 322 323 323 323 323 323 323 322 323 323 323 323 323 323 323 323 323 324
304 304 306 308 308 307 308 309 308 308 310 310 309 309 311 311 312 313 314 314 313 313 313 315 316 316 316 315 316 316 317 318 317 316 316 319 319 319 320 321 320 319 319 320 321 322 322 322 321 322 322 322 322 322 322 323 323 322 322 321 322 322 321 320 320 321 322 321 321 322 322 321 320 321 322 322 322 322 322 322 323 323 323 323 323 323 323
305 306 307 309 310 310 310 310 311 312 313 313 312 313 314 315 315 315 314 314 315 316 315 315 314 315 315 316 316 316 317 318 318 318 319 321 321 321 322 321 319 318 318 320 322 323 322 321 322 323 323 322 321 322 322 322 322 322 322 322 323 324 323 321 320 321 322 321 321 321 320 319 319 320 320 321 321 321 321 321 321 322 322 322 322 322 323
306 307 308 310 310 311 311 312 312 313 314 314 314 314 315 315 315 315 316 316 317 317 316 316 316 315 315 315 315 316 318 319 319 320 321 321 321 322 322 320 318 318 320 321 322 323 322 322 322 322 322 321 321 321 322 322 323 323 323 324 325 325 324 323 322 321 321 321 321 320 320 319 319 319 319 319 319 318 318 318 319 319 320 320 320 321 321
308 309 310 310 309 310 312 312 312 312 313 313 313 314 315 315 315 316 316 317 318 318 317 317 317 316 316 316 317 318 319 319 319 319 320 320 320 321 322 321 321 321 322 322 322 322 321 321 322 322 322 321 321 321 322 323 322 322 323 324 325 325 325 324 323 321 320 319 319 320 320 320 320 319 318 317 317 317 317 317 317 317 318 317 318 318 319
Wind_Speed
22 22 22 22 22 21 20 20 20 21 21 19 19 15 9 5 8 13 12 6 7 7 7 8 8 9 10 11 13 11 9 11 12 12 13 13 11 11 12 14 15 14 13 12 12 11 10 11 12 10 9 10 9 6 3 6 10 10 10 12 13 9 6 8 9 9 9 13 15 15 17 19 17 15 15 16 16 16 14 12 11 12 13 13 13 13 10
22 22 21 21 21 20 19 18 18 18 17 17 17 12 6 6 9 11 7 6 7 7 6 7 8 9 10 12 13 12 11 12 12 12 13 11 11 12 12 13 14 14 13 14 14 13 11 11 12 12 10 8 10 13 10 8 9 8 6 7 9 8 8 8 9 8 8 11 12 12 14 14 12 13 16 18 20 22 18 14 12 13 15 17 15 12 10
22 22 21 20 20 19 18 17 16 16 15 15 14 9 6 7 7 6 6 8 8 7 7 8 8 9 10 11 12 12 11 12 14 14 13 12 11 11 11 13 14 14 14 15 15 15 12 10 9 10 11 9 10 13 13 11 12 9 5 3 6 9 9 9 10 11 10 11 11 10 11 12 11 14 19 21 23 25 19 13 13 13 14 16 15 11 10
21 21 20 20 19 19 18 17 16 15 13 13 13 10 7 6 5 5 5 6 7 7 8 8 8 8 9 9 10 12 11 11 13 15 15 14 14 12 10 12 13 14 16 15 15 17 16 13 10 9 9 9 9 11 11 11 12 8 5 5 5 7 8 11 13 14 12 11 11 11 12 13 14 18 21 21 22 24 20 13 13 13 11 13 14 13 14
21 21 21 20 19 19 19 17 16 14 12 11 11 9 6 5 5 5 4 3 6 7 7 7 7 8 8 7 8 10 11 9 9 12 13 13 15 14 12 13 13 14 16 15 14 15 16 15 14 12 11 9 7 8 9 10 9 5 6 8 8 7 9 13 17 18 17 16 15 15 15 15 17 20 22 21 20 22 21 17 16 15 12 12 14 14 17
22 22 22 21 20 20 19 17 16 14 13 11 10 7 6 5 6 6 5 5 6 6 5 6 8 10 11 8 9 12 12 11 9 9 10 12 14 12 12 16 17 16 15 13 13 14 15 15 16 14 12 11 9 8 10 12 11 8 10 11 8 7 9 13 17 19 21 22 20 19 18 17 18 19 21 22 22 22 21 20 21 19 14 13 13 15 18
24 23 22 22 21 19 18 17 15 13 12 12 10 6 5 6 6 5 5 6 7 9 11 12 12 13 11 8 9 11 12 13 11 7 7 11 13 12 13 16 18 20 19 14 12 12 12 13 14 13 13 12 11 10 10 12 13 12 11 10 8 7 9 13 16 19 21 23 24 24 22 20 20 22 22 23 24 25 24 23 23 23 21 19 17 18 19
23 22 22 21 20 19 18 18 15 12 12 12 10 7 6 6 6 6 5 6 7 9 10 10 10 10 9 8 9 10 12 13 10 7 8 9 9 12 14 13 11 15 19 17 14 13 12 11 10 10 11 12 11 10 9 10 12 13 11 9 9 8 9 11 12 14 17 21 23 24 24 23 23 23 24 24 24 25 25 24 23 22 22 22 23 22 18
22 21 21 21 20 19 18 18 16 13 11 11 8 7 7 8 8 7 6 6 7 6 7 7 7 7 6 7 7 8 9 9 10 10 10 12 12 10 8 7 7 7 10 13 13 12 9 9 8 6 7 8 7 7 7 8 9 11 10 8 8 8 8 7 8 9 12 16 20 23 23 23 23 22 23 24 23 21 21 20 21 21 20 22 23 20 15
22 22 21 20 20 20 18 18 17 15 13 12 8 5 6 7 7 6 5 7 7 6 6 6 6 7 6 5 6 6 7 9 10 9 8 9 9 8 10 11 8 6 6 6 6 6 7 7 8 8 8 9 10 8 8 9 8 8 9 8 6 6 6 6 7 8 9 13 17 19 19 18 17 17 19 22 22 21 21 20 22 23 21 18 17 15 13
22 22 21 19 19 19 18 17 17 15 14 15 11 7 6 6 5 5 5 8 8 7 7 7 7 7 7 7 8 8 10 10 8 7 7 9 10 11 14 14 9 6 5 5 7 11 12 11 11 10 10 12 14 13 13 14 12 8 8 8 6 6 5 4 4 5 8 12 12 12 14 15 12 12 18 23 23 23 23 22 22 22 20 17 15 14 14
23 22 21 20 19 19 17 17 16 15 17 19 16 12 10 7 5 4 5 8 9 7 7 8 8 8 9 11 11 11 12 11 8 9 11 13 14 14 12 12 10 6 6 11 12 13 12 12 13 13 14 15 16 16 17 18 16 12 10 9 9 9 7 4 3 4 6 7 8 10 12 12 9 7 11 16 19 22 23 22 22 22 21 20 20 18 16
23 22 22 21 20 18 17 16 15 15 17 18 17 15 12 9 6 5 4 6 9 8 9 10 11 12 12 13 13 12 12 11 10 10 12 14 15 13 10 9 10 9 10 14 15 13 10 9 11 12 14 14 14 17 19 20 19 17 15 12 11 10 9 6 4 4 6 6 8 11 9 8 8 7 5 7 12 17 20 20 22 23 22 21 20 20 20
22 21 21 21 19 18 17 15 15 15 16 16 17 18 15 11 8 5 3 5 7 8 9 10 11 11 11 11 11 10 10 10 10 10 10 12 13 12 10 9 9 10 11 11 11 9 7 6 7 9 11 11 11 14 17 18 19 20 19 15 12 10 9 8 6 4 4 5 7 9 9 9 8 5 2 3 5 8 9 11 15 19 21 20 19 20 21
22 21 20 20 18 17 16 16 15 16 16 16 17 18 17 16 14 8 5 4 6 8 8 8 10 10 10 10 11 9 8 7 7 8 9 9 9 9 9 9 10 11 10 9 7 6 6 7 8 9 10 11 11 11 12 12 14 19 20 16 13 12 9 8 8 6 4 5 7 9 10 9 3 2 5 7 8 7 6 6 9 14 18 20 19 19 19
22 20 20 19 17 16 16 15 15 16 16 16 17 17 16 16 16 12 8 5 5 6 5 6 9 10 9 9 10 9 8 6 6 6 6 6 6 8 9 10 11 10 9 8 6 5 6 8 9 9 9 11 12 10 10 10 10 15 18 18 16 15 11 8 9 9 8 7 7 7 9 5 4 5 7 8 8 7 4 6 9 11 15 19 21 21 19
21 20 19 18 17 17 16 15 15 15 14 16 17 16 14 14 15 14 9 5 5 6 8 10 11 9 7 7 8 7 6 6 5 5 5 5 8 9 10 11 9 6 6 7 5 5 7 8 9 9 9 10 10 10 11 11 10 11 15 17 17 15 11 9 10 11 11 10 8 7 7 2 5 8 9 9 6 3 5 9 7 5 9 12 16 20 20
20 18 17 17 16 16 15 14 14 14 13 14 16 16 14 14 15 15 9 4 4 6 8 11 12 9 7 8 8 7 6 6 5 5 6 7 6 7 9 9 6 2 4 6 4 4 6 7 8 8 8 8 9 8 8 10 12 12 13 13 13 13 11 10 11 11 11 13 10 8 6 0 6 9 11 8 5 5 7 7 3 8 12 12 10 14 16
19 17 16 15 14 14 14 14 13 12 12 13 14 15 14 12 15 16 11 5 4 6 8 10 12 12 11 9 8 7 6 7 6 5 6 5 4 10 11 6 2 3 4 4 3 3 5 7 7 6 6 6 5 4 3 6 7 9 13 14 13 12 11 10 11 11 11 11 10 9 7 1 6 10 8 3 5 6 4 5 8 9 11 9 8 9 10
17 16 15 14 13 13 13 13 12 11 11 12 13 14 14 12 14 17 13 6 4 7 10 13 14 14 13 12 11 9 8 8 6 5 6 5 6 10 7 4 2 4 4 3 4 3 5 6 5 4 5 5 2 2 3 4 3 3 9 13 11 10 11 11 11 10 8 9 10 10 8 2 7 8 4 1 3 5 7 9 9 8 8 7 5 5 5
16 14 13 13 13 13 12 12 11 10 10 11 12 14 14 12 12 15 16 11 6 6 8 10 11 13 14 14 15 14 12 11 10 7 7 6 5 6 4 1 4 4 2 3 4 3 2 3 3 3 4 3 1 2 2 1 2 4 5 7 7 7 8 9 9 9 9 11 10 5 2 5 7 6 2 2 7 9 9 9 7 5 5 4 2 1 2
14 12 11 11 12 12 11 10 10 10 9 9 11 12 13 12 11 12 14 13 10 11 13 14 16 19 20 21 21 21 19 17 16 13 9 6 6 6 5 7 7 3 1 3 4 2 3 3 2 2 2 1 2 2 3 1 2 4 4 5 4 1 2 3 5 6 5 4 1 3 5 6 7 6 4 5 8 9 9 7 5 3 3 3 3 4 4
12 11 10 11 11 11 11 10 9 9 9 8 10 12 11 11 10 9 10 11 11 13 18 20 20 20 21 22 24 25 24 22 22 20 15 9 6 6 7 8 6 3 2 2 3 4 5 5 4 3 2 1 1 2 4 4 4 4 3 3 2 4 3 3 3 3 3 2 5 5 5 6 8 10 8 7 8 8 7 6 4 4 6 7 7 8 9
10 10 10 10 10 10 10 9 8 7 8 8 10 11 11 10 8 7 8 7 6 7 11 14 12 11 12 14 15 17 19 21 22 23 21 15 9 6 5 5 4 4 3 1 4 6 5 4 4 3 2 2 1 1 3 3 2 2 2 3 4 6 4 3 1 4 4 2 5 6 5 7 10 12 11 10 9 9 7 6 5 6 9 11 13 13 12
8 9 10 10 10 9 8 8 7 7 7 8 9 10 11 10 9 9 9 7 4 4 7 8 9 11 13 13 13 12 13 15 15 17 19 20 17 12 7 3 3 4 3 3 5 6 4 3 4 3 3 3 2 1 2 3 2 3 2 2 2 4 6 4 1 3 3 3 6 6 6 9 12 13 11 9 9 9 8 7 8 9 12 15 17 16 14
8 9 9 9 8 7 7 7 7 6 7 7 8 8 10 10 9 9 10 8 5 5 6 8 9 10 10 12 14 13 12 13 14 15 18 21 21 19 15 10 8 8 6 4 5 6 5 3 4 3 3 3 3 1 2 3 4 3 2 5 4 5 4 3 2 1 3 4 4 4 5 8 12 13 11 10 10 9 10 11 12 13 15 18 19 18 16
8 8 8 7 6 6 6 6 6 6 7 7 7 8 9 10 9 9 10 9 5 4 6 7 7 8 11 16 18 16 14 15 17 18 19 19 20 20 18 13 9 8 6 4 5 5 5 4 4 4 4 3 3 2 1 1 3 2 3 6 7 4 1 3 2 4 3 3 3 4 4 4 6 9 8 10 12 10 12 14 15 16 15 16 18 18 16
8 7 6 5 5 6 5 5 6 6 6 7 7 8 10 11 11 12 14 13 8 5 6 8 9 11 13 14 13 11 11 14 16 17 19 19 20 20 16 12 9 7 4 4 4 3 4 4 4 3 3 3 2 2 1 2 2 0 3 6 7 4 3 4 3 1 3 3 2 3 3 3 5 7 4 5 9 11 12 14 16 16 15 15 16 16 15
7 6 6 5 5 5 5 5 6 6 6 6 7 8 9 9 10 11 13 15 12 7 7 8 9 9 9 9 10 9 8 11 15 16 16 16 18 17 14 11 10 7 4 4 4 3 3 5 5 3 4 4 3 2 2 2 2 3 6 6 5 3 3 5 4 2 3 3 1 3 6 7 7 7 5 3 6 9 12 14 15 15 15 15 15 15 14
7 6 6 6 5 5 4 5 5 5 5 5 6 6 5 4 3 5 7 11 12 8 5 6 7 6 7 10 10 8 5 8 12 15 15 14 13 13 12 10 8 6 5 5 5 3 3 4 4 4 5 4 3 2 2 2 4 5 7 7 5 4 3 4 3 1 1 3 4 8 11 10 9 9 8 5 6 8 10 12 13 13 14 15 15 14 14
8 7 6 5 5 4 4 4 5 5 5 5 5 4 2 0 2 6 5 5 9 6 4 5 6 7 7 7 7 7 6 6 9 11 12 12 10 10 11 9 6 5 6 5 5 4 4 3 3 3 2 1 1 2 2 1 4 5 7 8 7 5 5 5 4 4 4 5 9 13 14 10 8 9 8 7 8 9 8 8 10 11 13 13 14 13 12
8 7 6 5 4 4 5 5 5 5 6 7 8 7 6 6 8 10 7 1 5 4 3 5 6 6 4 3 4 6 7 7 7 7 9 10 8 8 9 8 5 5 5 4 4 3 3 4 3 1 1 1 2 2 2 3 4 5 6 8 9 9 9 9 9 10 9 6 8 12 12 9 8 8 7 8 9 9 9 8 8 8 9 11 12 12 12
8 7 7 5 5 5 5 6 7 7 7 10 12 11 9 9 10 12 9 5 4 4 4 4 6 5 4 5 5 3 2 4 6 5 6 8 7 6 7 6 4 4 5 4 3 2 3 4 2 1 1 1 1 2 4 5 6 6 7 8 10 10 10 10 11 12 12 11 9 10 9 9 9 9 8 8 9 8 8 8 8 7 8 10 10 10 11
9 8 8 7 7 7 7 8 9 8 8 9 8 6 3 4 5 7 9 7 5 5 4 3 5 5 5 5 2 2 3 1 5 6 4 6 7 6 6 6 4 4 5 5 4 3 3 2 1 3 2 1 2 3 4 6 8 8 7 8 9 8 8 10 11 10 10 11 11 10 8 8 8 9 10 10 10 9 8 6 6 7 8 9 9 8 8
10 10 10 10 10 10 10 9 8 8 7 6 4 2 4 7 7 4 9 9 5 3 2 3 3 4 6 5 0 5 7 3 5 6 3 5 7 5 5 6 5 4 5 4 4 3 2 1 1 2 2 3 3 3 4 6 8 8 7 7 6 6 7 8 8 8 8 8 9 9 8 8 9 9 9 10 10 10 9 8 8 8 8 8 7 7 6
12 12 12 12 11 9 7 6 6 5 4 3 4 6 8 9 6 4 8 10 7 4 3 3 3 4 5 5 2 4 7 3 4 4 3 4 6 4 4 6 4 3 3 4 3 2 2 0 1 3 4 4 4 3 3 5 8 9 8 7 6 6 7 8 7 7 7 8 9 8 8 8 8 6 6 7 8 8 8 9 9 9 8 7 6 6 5
14 13 12 10 7 6 4 2 3 4 5 7 10 10 7 6 6 5 6 7 8 6 3 4 4 4 4 4 3 3 3 1 3 3 3 4 5 4 4 4 4 3 3 3 2 3 2 0 2 5 6 5 4 3 2 4 7 9 9 7 7 7 7 7 6 6 8 8 8 6 5 5 4 4 4 6 7 7 7 7 6 6 6 6 5 5 5
13 11 9 7 4 3 1 1 1 6 11 13 12 7 3 5 4 4 4 4 4 5 4 4 4 4 4 4 4 3 3 2 1 3 4 4 4 4 4 3 3 3 3 3 3 2 2 3 4 5 6 6 5 5 4 4 6 7 7 6 6 7 7 5 4 4 5 5 3 2 2 2 2 2 3 4 5 6 5 5 5 5 5 5 5 5 5
11 8 6 5 3 2 3 4 7 11 12 9 6 4 2 2 2 2 2 2 2 3 3 4 4 4 4 5 4 2 2 3 2 2 4 3 2 3 3 3 3 3 4 4 4 1 2 4 4 4 5 6 6 6 6 5 5 7 7 6 5 6 6 4 2 2 3 3 2 2 1 2 2 2 1 2 2 2 3 4 5 5 4 4 4 3 3
10 7 4 3 4 5 7 10 11 9 6 4 3 2 1 1 1 1 1 1 2 2 2 1 1 2 3 5 4 2 2 3 2 1 1 2 1 1 2 3 2 2 4 4 3 2 3 4 4 4 5 5 5 6 6 5 6 7 6 6 6 6 4 3 2 2 3 3 3 3 1 1 2 3 3 2 2 1 1 2 3 3 3 4 4 3 3
10 7 4 5 8 11 12 11 8 5 3 2 2 2 2 1 1 1 2 2 0 1 1 1 2 1 2 3 3 3 3 3 2 3 1 2 1 1 2 3 2 2 3 3 1 1 3 4 3 3 3 5 6 7 6 6 6 6 6 6 6 6 5 4 3 3 3 3 3 2 1 1 2 2 3 3 3 2 2 3 3 4 4 5 5 5 7
12 10 9 10 12 12 9 6 3 2 2 2 1 2 2 1 1 1 1 1 2 2 1 1 3 3 3 4 3 3 2 2 2 3 1 2 1 1 2 3 1 1 3 2 2 1 3 4 3 3 4 5 7 7 7 7 7 6 6 6 5 5 4 4 4 4 3 3 2 1 1 1 1 2 2 2 1 2 3 3 4 4 5 5 6 8 9
10 7 7 7 7 5 3 2 1 1 1 1 1 2 2 1 1 1 1 1 1 2 1 2 3 3 2 3 3 2 2 2 2 2 0 3 2 1 1 2 1 1 2 2 1 1 3 3 3 4 4 4 5 6 6 6 6 6 6 6 5 5 5 4 4 4 3 3 2 2 1 1 2 2 2 1 1 1 2 2 3 4 4 5 7 8 10
6 3 3 3 2 2 2 2 2 1 2 2 2 3 3 2 2 2 2 2 3 3 3 3 4 4 3 3 3 2 2 1 1 1 2 3 2 1 1 2 2 1 1 1 1 3 4 3 3 5 6 5 5 5 5 5 5 5 5 5 5 5 5 5 5 5 4 4 4 3 3 2 2 2 2 3 3 3 3 3 3 4 5 5 7 9 9
4 2 1 1 2 2 2 2 2 2 3 3 3 3 4 4 3 3 4 3 3 4 4 4 4 5 5 4 2 1 1 0 1 1 2 1 2 2 2 2 2 1 1 2 2 3 4 3 4 5 6 6 5 5 4 4 3 4 4 4 4 4 5 5 5 5 5 4 4 4 4 4 3 3 3 4 4 4 4 4 4 5 6 6 7 9 9
3 2 2 2 3 3 2 2 3 3 3 3 4 4 4 5 5 5 5 4 4 4 5 4 4 4 5 4 1 0 2 1 2 2 2 1 3 3 2 1 1 2 2 2 3 3 5 4 4 4 5 6 6 5 4 3 2 2 3 3 3 3 4 5 5 5 4 4 4 4 5 5 5 5 5 5 5 5 5 5 6 6 6 7 7 7 7
2 2 2 2 2 2 2 2 2 3 4 4 5 6 5 5 6 6 5 3 3 4 3 2 2 2 3 4 2 1 2 2 3 3 3 2 3 2 2 1 2 3 2 2 3 4 4 4 4 5 5 5 5 5 3 2 1 1 2 3 4 5 5 5 5 5 6 6 6 6 5 6 6 6 7 7 7 6 6 6 6 7 6 6 6 6 6
1 0 1 1 1 2 2 2 3 5 6 5 5 6 5 4 5 6 4 4 4 5 4 4 2 1 2 3 1 2 3 3 3 2 2 2 3 2 2 2 4 3 2 2 3 4 4 5 6 5 4 4 4 2 1 1 0 1 3 4 4 5 5 5 6 6 6 6 7 6 6 6 7 7 7 7 8 8 7 7 6 6 6 6 6 6 7
1 0 1 1 1 2 3 4 5 6 5 5 5 5 4 3 4 4 3 3 5 5 4 4 3 1 1 1 2 3 4 4 3 1 1 1 2 2 2 3 4 3 3 2 3 3 5 6 6 5 4 4 2 0 1 0 2 2 2 3 3 3 3 4 5 5 6 6 6 6 6 7 7 7 7 7 7 7 7 7 7 7 7 7 7 7 8
0 1 2 3 2 2 3 4 4 5 4 3 3 4 4 4 4 4 3 1 2 3 3 3 2 1 2 3 3 3 3 3 2 1 1 3 3 2 2 4 4 2 1 2 2 3 4 4 4 4 4 3 1 1 2 3 3 3 3 3 2 1 2 3 4 5 6 6 6 6 7 7 7 7 7 6 5 5 7 8 8 7 8 8 8 8 8
1 1 4 5 5 6 6 5 7 8 9 8 8 8 7 7 7 6 5 3 2 2 1 0 0 2 3 3 3 1 1 1 2 3 3 4 3 2 3 4 3 2 2 2 2 3 4 4 3 4 4 3 2 2 2 3 3 3 3 3 2 2 2 2 3 4 4 4 5 5 6 6 6 6 5 5 5 5 6 7 8 7 7 8 8 8 8
3 3 4 5 6 7 7 7 7 8 8 8 8 8 8 8 8 8 7 5 2 2 2 2 2 3 3 3 1 0 0 1 3 4 4 3 3 3 4 5 3 1 2 3 3 3 4 4 3 3 3 2 2 2 2 3 3 4 4 4 4 3 3 2 2 3 3 3 4 4 4 4 5 5 4 5 6 5 5 5 7 7 8 8 8 8 8
Wind_Direction
310 311 311 313 317 319 321 322 328 336 339 342 340 327 306 279 282 300 305 263 224 245 252 242 237 233 240 249 250 250 252 250 248 243 235 231 226 226 233 237 238 241 240 239 237 234 236 238 234 236 233 224 227 227 224 238 221 203 210 209 199 207 215 216 229 230 220 222 218 209 213 222 227 222 215 215 218 220 226 229 225 228 228 227 237 241 234
311 311 311 313 316 318 320 320 325 333 336 337 334 324 305 295 287 284 274 210 211 242 253 252 250 242 241 244 246 248 249 247 244 241 235 228 225 226 228 229 230 235 236 235 236 232 232 240 237 238 244 233 233 245 246 241 226 204 205 200 182 191 208 207 220 225 216 220 216 203 206 217 226 226 220 219 221 222 226 230 231 233 230 228 233 236 228
310 311 312 312 314 316 317 316 320 327 329 330 327 318 305 295 278 258 233 207 212 241 264 275 277 267 259 259 258 253 247 243 240 241 242 237 232 232 230 228 228 230 232 232 234 234 234 238 234 233 239 234 231 237 236 235 230 222 245 255 186 194 206 202 212 217 209 212 211 202 205 211 219 228 225 221 222 223 224 227 229 232 232 231 235 238 232
306 307 308 308 309 312 314 313 315 319 321 325 321 309 303 299 287 278 249 213 219 244 256 261 263 269 278 279 270 259 251 244 233 234 242 240 238 242 239 231 227 223 226 229 230 230 230 233 235 234 233 227 221 222 225 229 227 232 288 288 227 219 217 207 217 229 225 220 216 212 212 213 215 222 225 225 223 225 227 228 229 230 229 232 238 243 240
303 303 303 303 302 305 307 309 312 312 310 314 312 298 283 278 280 291 303 289 266 249 235 241 255 271 282 290 289 278 272 266 240 226 233 234 232 238 239 233 229 222 220 224 227 227 226 227 230 234 235 233 219 205 211 222 220 235 268 245 223 235 230 214 221 233 238 239 233 221 217 221 221 220 221 224 224 225 228 230 233 234 233 232 231 231 235
302 302 300 298 298 299 300 302 304 305 302 302 303 292 271 266 278 301 319 301 279 276 293 313 309 291 283 279 281 281 278 276 264 237 234 234 227 227 231 228 229 230 226 225 228 227 225 226 228 230 232 235 234 221 216 220 216 220 233 222 211 231 233 223 226 231 234 237 239 235 228 225 227 226 222 222 223 224 226 232 235 236 238 240 231 224 227
300 299 298 297 296 296 296 296 295 295 294 289 285 281 276 273 274 290 303 285 286 303 313 317 306 288 282 276 265 270 271 267 267 266 257 243 229 225 229 226 226 229 229 230 230 224 225 226 223 223 226 226 232 235 228 222 216 220 228 217 205 225 234 232 234 235 233 233 234 236 236 230 228 229 229 227 226 225 226 231 233 234 239 244 242 237 232
300 298 296 295 294 293 293 291 284 281 282 277 267 260 269 286 289 292 300 290 288 292 291 292 290 280 278 273 264 266 266 266 280 293 277 263 247 232 230 234 242 236 228 229 233 230 236 242 231 224 223 218 221 232 236 228 214 215 227 216 196 212 230 233 239 242 236 232 232 235 239 238 233 230 230 232 231 229 227 227 229 232 236 238 240 242 240
301 299 296 293 292 290 291 289 280 271 265 263 262 259 262 281 291 289 292 288 280 277 272 272 279 278 269 266 270 271 272 293 324 313 278 267 268 265 266 290 313 285 239 229 234 237 247 263 267 267 252 241 241 243 242 240 221 212 219 207 188 208 225 226 241 247 235 228 228 230 235 240 239 234 230 231 232 232 232 229 227 229 232 233 235 238 238
301 301 298 295 292 289 288 287 280 270 256 250 255 262 259 269 275 264 266 278 276 274 273 264 263 268 268 276 292 292 296 321 333 315 282 266 273 307 335 334 325 301 264 242 260 299 314 302 293 292 281 272 274 272 262 257 248 225 218 207 189 205 218 216 232 247 241 231 229 229 230 233 235 232 229 230 232 233 235 235 230 229 230 233 234 235 237
299 300 298 297 294 290 287 283 278 270 256 248 249 257 257 258 269 266 265 272 270 265 265 258 252 261 275 293 301 298 299 309 313 298 289 292 304 326 334 324 308 288 297 328 332 324 314 296 282 273 265 262 259 257 256 255 252 239 227 217 196 191 200 216 233 251 248 236 229 233 234 230 229 226 224 227 229 231 234 237 235 232 230 234 239 241 238
296 297 297 295 293 292 288 281 274 265 257 254 256 261 257 246 253 262 259 267 272 268 263 262 265 275 285 291 295 293 290 294 299 290 285 290 300 308 312 307 292 288 334 341 326 314 302 280 260 247 244 247 246 245 244 242 240 235 229 226 213 201 202 212 228 250 250 233 219 226 230 228 233 240 235 233 234 234 236 239 240 239 235 235 238 240 241
294 294 294 292 292 291 287 281 274 263 258 257 255 252 249 237 236 247 250 266 273 270 269 273 277 280 281 281 283 281 279 285 290 283 277 281 288 294 298 291 286 299 328 328 314 306 294 267 245 233 229 229 234 238 237 234 233 231 227 226 222 217 218 221 224 240 246 234 223 229 237 243 245 249 265 263 245 237 237 238 237 237 238 237 235 236 238
292 292 292 290 290 290 286 279 273 267 264 261 254 251 246 229 222 239 252 254 265 274 278 278 277 276 278 286 290 282 275 284 288 278 273 276 281 288 290 287 295 310 317 313 302 286 263 246 235 225 219 216 219 227 228 226 227 226 224 224 221 215 217 224 225 225 237 246 241 239 246 252 250 250 349 345 289 260 255 251 239 232 235 237 235 234 233
290 290 291 289 287 287 284 278 271 267 266 262 256 253 247 228 220 233 248 248 269 278 272 272 279 286 296 307 306 294 282 287 292 285 279 276 277 285 293 302 312 311 301 291 281 262 246 234 225 216 208 207 210 213 214 215 216 218 218 217 214 210 207 212 217 208 206 240 248 241 237 234 225 41 29 11 342 326 317 286 250 234 233 233 232 232 228
288 289 290 289 287 286 284 279 270 264 263 260 255 253 248 232 222 230 244 248 258 265 277 305 304 297 299 297 287 279 279 284 296 298 286 281 294 303 311 317 309 292 281 277 266 257 251 232 224 223 213 208 210 207 201 198 198 204 207 205 206 207 201 200 219 219 212 224 239 243 240 220 109 53 8 353 338 335 323 265 242 235 236 232 228 226 222
288 287 287 289 289 287 285 279 271 264 260 256 251 249 248 238 226 228 237 239 240 256 281 299 296 283 278 280 274 274 287 294 297 300 294 298 312 316 321 324 312 272 263 279 268 245 243 233 226 227 219 212 214 208 199 198 189 183 191 195 199 203 197 196 216 220 212 215 228 243 246 229 60 25 354 340 327 309 246 235 237 284 291 266 241 229 223
289 287 286 287 288 286 283 277 271 267 263 255 249 248 248 241 229 226 231 239 244 251 264 274 279 278 279 287 292 295 306 309 304 305 295 287 304 324 322 322 324 270 254 277 271 242 243 240 231 229 224 222 225 217 204 202 192 177 179 188 195 200 200 202 213 216 211 213 224 238 239 219 28 1 346 332 285 235 226 235 289 335 325 318 291 255 237
290 288 287 288 290 286 282 278 273 268 262 253 247 248 250 241 230 228 227 225 231 242 259 271 277 278 274 277 281 277 280 286 287 299 291 272 333 339 315 288 297 320 285 267 261 245 237 233 230 229 224 222 234 253 240 219 201 178 178 188 197 201 200 205 213 216 217 219 227 235 225 147 15 348 347 338 248 237 260 313 321 314 310 319 311 281 262
290 288 288 290 291 287 282 279 274 268 261 250 243 247 251 244 231 229 228 226 240 254 262 265 268 272 273 270 267 263 264 265 259 266 273 277 342 340 304 209 109 347 306 261 250 238 228 231 232 230 221 213 236 300 245 226 264 234 194 193 199 201 202 207 208 207 214 217 223 233 223 131 29 357 353 12 281 302 330 325 311 313 320 320 308 288 269
292 289 287 290 291 288 284 279 272 266 262 250 240 246 254 247 232 232 235 236 245 259 264 269 275 280 279 271 265 264 263 261 258 263 275 286 317 322 296 305 347 334 325 309 279 243 237 250 236 229 229 210 198 293 250 185 317 297 248 211 201 203 212 215 204 198 213 219 217 222 178 88 60 40 35 335 316 315 317 313 311 324 332 326 343 360 227
292 288 286 288 291 290 285 278 272 265 261 251 236 238 247 244 234 233 235 233 235 249 265 278 284 280 275 271 266 261 258 258 259 261 269 280 279 272 280 303 305 284 295 327 308 302 323 314 290 260 246 187 152 230 252 221 216 253 259 234 219 234 311 265 219 196 214 238 212 79 68 76 80 77 61 350 327 317 311 314 330 1 10 26 64 87 125
291 288 288 289 292 291 284 277 272 262 256 249 234 231 242 248 239 232 234 237 244 256 266 271 273 272 268 263 258 254 252 253 252 247 244 252 266 264 263 274 281 270 252 294 317 331 328 314 301 292 279 312 9 246 246 235 213 217 222 190 128 52 15 284 238 160 137 71 69 78 72 72 79 75 57 20 355 346 339 343 14 59 70 69 75 86 97
291 288 292 294 292 290 284 277 272 261 251 246 236 234 245 254 250 244 247 247 252 269 271 264 259 265 271 271 266 257 246 241 241 239 235 234 243 258 253 241 240 240 237 281 316 313 310 297 289 288 276 277 310 225 249 247 205 221 239 168 106 53 9 299 191 154 177 144 80 72 59 64 72 67 50 26 6 360 1 13 32 58 74 73 70 75 83
299 295 297 298 293 288 284 278 271 263 254 246 239 241 249 252 248 245 247 251 258 276 282 279 276 281 285 283 277 264 246 236 233 231 226 223 225 238 255 259 252 262 282 328 312 297 303 303 282 287 299 291 285 193 237 264 331 352 349 69 69 360 335 334 46 131 149 91 69 65 58 58 61 60 48 20 3 8 18 32 46 54 63 65 60 57 60
306 304 302 300 295 287 282 279 274 267 260 253 246 246 250 252 249 240 239 250 263 260 269 283 284 283 282 276 269 263 255 244 234 225 223 221 222 229 246 265 282 289 298 310 295 285 288 277 261 267 290 294 298 287 215 261 303 315 49 48 355 297 295 343 351 162 123 98 102 109 86 63 54 52 34 352 344 9 26 31 41 47 53 60 59 52 45
309 309 307 303 298 292 286 282 278 271 266 263 257 253 253 256 256 247 243 250 263 263 265 278 294 305 299 287 278 270 255 241 232 226 225 225 222 224 235 249 263 276 287 296 291 280 265 251 255 267 274 271 277 279 217 227 279 274 84 37 353 318 328 356 277 199 140 102 136 138 104 74 61 61 36 336 338 12 31 32 35 37 43 57 64 59 50
313 313 313 307 303 303 296 285 280 276 273 269 259 254 257 259 257 252 249 250 259 276 280 286 299 306 301 290 280 269 244 227 223 222 222 222 221 222 227 235 242 250 261 269 280 288 276 271 278 284 291 295 277 271 257 200 212 142 44 11 350 348 350 329 296 213 44 38 119 127 77 63 67 71 61 333 348 18 36 41 41 36 34 47 61 63 57
325 321 320 316 309 304 298 293 287 279 276 278 273 266 261 256 257 259 252 246 249 263 280 288 292 295 301 305 298 283 249 219 214 215 215 215 216 218 221 227 231 234 238 244 257 279 276 274 280 274 275 292 287 258 241 178 140 63 30 7 353 357 349 331 317 314 12 17 106 117 91 86 78 68 60 21 18 32 39 43 47 43 35 39 51 56 53
337 328 322 319 313 305 299 297 291 278 273 277 279 279 267 241 261 294 267 239 236 247 271 285 288 293 301 300 290 276 246 212 208 209 208 208 210 212 216 220 223 224 228 236 246 253 242 251 266 256 254 281 301 278 244 148 109 64 36 27 16 7 7 351 319 285 71 72 110 111 102 100 98 89 79 64 58 58 47 36 38 42 40 39 45 48 45
340 332 321 315 312 308 304 298 291 289 288 283 274 281 297 197 326 344 340 224 216 230 260 268 277 289 289 273 263 271 270 235 210 204 202 205 207 206 207 211 212 209 217 231 242 248 249 256 271 273 270 326 333 297 290 121 108 73 39 40 45 41 47 51 43 53 81 114 125 114 104 102 105 99 88 77 77 81 72 45 34 39 44 45 46 48 47
342 336 329 320 311 308 307 303 299 291 283 277 271 276 292 287 281 298 315 246 192 214 261 277 286 295 299 292 288 287 270 231 207 198 194 196 200 197 195 203 210 209 221 250 261 249 249 254 259 290 8 324 290 319 3 36 78 72 52 58 67 61 54 53 50 46 49 72 104 102 90 74 68 71 73 76 79 84 89 82 63 52 53 53 49 46 46
340 337 332 324 315 310 303 296 296 290 279 275 273 272 281 285 273 265 261 245 233 243 262 291 298 296 306 316 315 305 261 210 194 190 186 185 185 182 181 191 208 209 212 235 256 249 251 254 238 132 84 291 288 61 63 64 82 89 80 73 72 65 53 48 49 47 42 41 59 78 71 51 46 49 53 58 59 61 75 90 92 84 74 66 59 49 40
333 329 324 316 308 301 295 290 289 287 281 279 278 276 296 325 302 254 223 216 246 262 248 269 296 304 307 301 286 73 22 261 183 178 182 179 179 180 172 172 191 203 196 210 241 245 237 241 177 140 135 94 68 80 80 85 98 104 93 78 76 73 61 50 47 49 45 40 49 62 58 43 39 38 32 28 26 25 34 54 74 79 72 65 60 57 51
324 320 316 311 303 298 295 287 275 272 276 274 273 299 325 328 322 261 198 195 225 273 254 254 288 316 318 304 9 50 10 328 186 176 173 169 176 186 167 161 182 196 182 200 235 230 188 106 89 121 115 80 75 77 75 91 110 114 96 72 65 68 69 63 56 53 51 45 47 51 49 46 46 36 18 7 6 9 19 32 42 51 57 52 43 42 45
320 316 312 308 300 291 285 268 247 249 262 264 280 301 303 299 294 232 195 203 228 268 305 309 299 308 316 312 334 4 344 306 181 164 157 159 171 189 182 169 173 172 170 196 217 178 128 130 101 106 97 84 83 75 57 81 103 105 93 77 68 74 88 94 92 84 70 56 48 41 35 39 44 36 12 1 358 4 21 33 32 34 42 41 30 27 25
318 315 314 310 293 268 257 221 197 227 266 291 302 303 286 253 233 211 202 211 218 222 252 297 294 288 299 302 306 329 328 282 168 160 170 166 158 171 186 178 163 160 170 172 136 92 86 117 99 87 83 81 82 77 63 76 89 93 94 98 101 101 99 98 97 93 80 65 51 36 23 22 25 22 21 15 3 4 23 34 28 24 26 19 9 12 9
325 322 319 310 284 259 273 95 221 270 288 299 303 296 234 197 207 213 207 202 192 193 215 254 264 260 264 272 284 315 336 307 236 174 170 167 154 165 182 164 135 150 158 129 107 89 86 101 98 92 91 92 84 72 67 78 88 90 94 100 103 100 93 86 80 79 78 74 67 44 20 6 355 3 31 37 18 5 8 16 14 15 16 6 356 358 2
340 334 318 302 302 336 358 334 307 299 296 289 276 257 213 211 246 247 199 176 180 201 218 230 237 247 267 283 293 320 333 298 272 171 154 154 152 173 180 153 138 174 166 127 112 125 118 106 107 107 105 98 82 66 59 70 88 94 96 98 101 102 100 93 70 47 54 68 86 80 28 346 333 341 27 76 68 21 357 6 13 11 5 353 345 351 11
348 340 320 310 326 335 330 321 314 307 291 253 240 263 279 249 253 308 327 254 218 207 210 227 228 243 277 295 307 340 354 328 308 299 131 126 126 197 175 143 148 193 166 128 114 157 149 129 119 110 103 96 85 75 68 69 78 83 89 95 98 100 103 103 89 67 63 67 76 81 63 345 338 344 351 8 37 36 14 21 20 7 352 342 341 354 24
340 330 313 310 315 314 311 309 299 275 253 260 273 281 284 268 241 268 276 283 349 116 162 285 314 336 300 295 296 315 337 330 293 284 315 81 73 258 146 129 157 198 150 116 19 235 150 126 109 95 81 78 83 83 77 73 75 76 79 86 90 91 95 99 94 83 78 76 72 65 45 16 6 360 354 356 359 357 359 10 12 2 351 346 350 10 25
314 295 282 289 298 298 295 292 276 244 262 301 290 268 283 299 282 243 246 306 2 35 66 323 333 339 322 307 293 287 307 322 291 271 260 92 52 324 126 133 204 200 115 75 325 230 129 107 97 85 55 53 70 77 72 70 74 74 73 77 81 81 82 85 82 77 79 85 83 56 22 16 17 10 358 351 345 350 354 358 359 358 359 1 11 22 26
316 290 274 279 288 284 273 279 297 282 289 309 315 315 321 334 326 320 354 28 345 346 16 6 343 327 309 302 287 259 255 280 297 289 343 70 35 337 134 123 109 84 79 30 332 122 105 83 94 107 89 63 66 69 61 60 68 74 74 75 78 79 79 82 91 96 100 110 118 111 87 58 42 25 12 8 24 52 50 24 5 6 12 19 26 30 29
317 282 257 259 281 297 310 325 328 332 346 356 351 339 342 360 11 2 7 9 351 349 2 1 346 342 336 319 303 276 244 235 268 319 43 63 40 335 52 77 65 87 109 55 47 88 83 60 79 103 105 92 76 62 51 54 70 84 85 82 83 90 93 94 98 99 99 100 102 99 95 94 86 58 40 36 38 60 81 73 46 34 30 33 38 41 36
312 290 275 321 342 345 355 356 346 351 355 350 342 341 342 340 340 345 355 353 332 326 343 355 343 324 310 297 286 297 327 10 78 38 14 60 81 44 33 54 73 91 84 47 44 75 84 71 72 85 91 89 78 61 48 51 69 90 96 93 92 96 99 99 97 96 96 96 94 92 93 95 93 82 71 61 51 53 58 52 37 31 30 30 38 44 41
4 357 342 2 12 7 5 1 354 353 348 330 319 315 312 307 306 315 328 331 319 317 332 341 328 312 307 301 284 341 334 350 64 40 343 6 79 51 349 311 111 83 65 55 57 78 93 95 87 81 80 75 66 54 42 38 49 85 110 117 119 117 115 114 110 106 104 103 98 89 82 78 75 74 77 76 67 59 54 43 32 30 33 32 35 36 35
48 6 337 12 32 6 350 352 317 285 277 283 288 287 288 297 299 293 285 281 289 294 292 280 275 289 293 284 280 28 21 25 55 40 359 30 81 60 318 322 68 59 53 74 87 96 110 113 99 82 73 66 58 47 32 13 6 143 140 131 122 117 117 118 113 107 103 100 94 85 78 75 71 68 70 74 74 69 61 52 44 42 44 46 45 39 33
75 343 350 45 40 330 318 317 294 276 261 252 256 259 254 256 269 267 242 204 213 235 238 230 229 236 253 261 289 43 38 30 42 37 4 31 70 51 358 50 68 49 29 72 98 102 102 100 95 87 77 68 60 43 342 300 180 130 124 114 107 106 110 111 105 98 93 89 86 80 75 73 71 67 66 70 71 67 62 58 56 55 53 52 53 49 43
74 41 42 81 143 243 246 253 276 282 265 243 248 256 249 242 258 267 243 198 208 222 224 228 241 276 34 30 31 39 30 21 29 29 348 36 65 60 35 58 65 47 22 40 67 71 74 85 95 95 86 76 69 12 270 58 75 81 89 91 91 97 102 103 101 96 88 82 79 75 70 68 67 64 59 59 62 62 58 53 51 51 50 47 44 43 42
117 6 28 35 21 329 282 273 306 335 344 355 3 358 353 355 1 10 16 325 230 216 205 216 233 73 65 51 36 37 30 13 8 28 63 55 52 46 47 58 63 55 35 54 66 69 74 84 96 97 91 83 62 24 45 60 62 61 66 73 75 78 85 88 92 93 90 85 79 75 71 66 62 58 53 51 58 65 61 52 45 43 43 40 35 34 35
326 14 31 31 20 7 355 353 4 9 9 12 15 10 1 2 9 9 356 333 270 213 187 158 73 84 76 61 42 29 328 318 356 36 54 47 22 17 63 83 98 127 121 97 86 81 82 84 89 97 99 89 55 31 36 48 54 58 63 66 63 59 64 75 82 86 88 87 82 76 73 69 64 61 57 53 55 62 61 52 43 37 36 34 29 27 28
353 349 8 20 19 12 7 6 8 7 5 9 12 6 0 3 1 348 339 347 25 65 54 48 51 52 54 61 76 158 150 35 30 37 47 42 11 19 59 75 84 97 100 100 104 103 95 89 85 87 88 79 58 41 37 45 53 53 50 51 54 54 51 51 55 61 71 80 79 74 72 69 62 57 55 54 52 51 50 47 40 33 30 28 26 24 24